Rantoul, IL

2:07 PM CDT on April 25, 2017 (GMT -0500)
Rantoul

Weather History for KTIP - October, 2012

Change the Weather History Date:

Sunday, October 21, 2012

  Actual Average (KCMI) Record (KCMI)
Temperature  
Mean Temperature 56 °F -  
Max Temperature 72 °F 61 °F 83 °F (2015)
Min Temperature 40 °F 38 °F 28 °F (2013)
Degree Days  
Heating Degree Days 9    
Growing Degree Days 6 (Base 50)    
Moisture  
Dew Point 48 °F    
Average Humidity 77    
Maximum Humidity 99    
Minimum Humidity 46    
Precipitation  
Precipitation 0.00 in - - ()
Sea Level Pressure  
Sea Level Pressure 30.00 in    
Wind  
Wind Speed 6 mph (SE)    
Max Wind Speed 16 mph    
Max Gust Speed 21 mph    
Visibility 8 miles    
Events      
Averages and records for this station are not official NWS values.
T = Trace of Precipitation, MM = Missing Value Source: NWS Daily Summary

Daily Weather History Graph

Daily Weather History Graph

Search for Another Location

Airport or City:

Trip Planner

Search our weather history database for the weather conditions in past years. The results will help you decide how hot, cold, wet, or windy it might be!

Date:

Astronomy

Oct. 21, 2012 Rise Set
Actual Time 7:10 AM CDT 6:03 PM CDT
Civil Twilight 6:42 AM CDT 6:30 PM CDT
Nautical Twilight 6:10 AM CDT 7:02 PM CDT
Astronomical Twilight 5:39 AM CDT 7:34 PM CDT
Moon 1:31 PM CDT (10/21) 11:57 PM CDT (10/21)
Length of Visible Light 11h 48m
Length of Day
10h 52m
Waxing Crescent, 45% of the Moon is Illuminated
Oct 21
Waxing Crescent
Oct 21
First Quarter
Oct 29
Full
Nov 6
Last Quarter
Nov 13
New

Hourly Weather History & Observations

Time (CDT) Temp. Windchill Dew Point Humidity Pressure Visibility Wind Dir Wind Speed Gust Speed Precip Events Conditions
12:15 AM 41.5 °F - 40.3 °F 95% 29.97 in 7.0 mi Calm Calm - N/A   Clear
12:35 AM 41.9 °F - 40.5 °F 95% 29.98 in 10.0 mi Calm Calm - N/A   Clear
12:55 AM 41.9 °F 40.0 °F 41.0 °F 97% 29.99 in 7.0 mi SSE 3.5 mph - N/A   Clear
1:15 AM 41.9 °F - 40.8 °F 96% 29.99 in 7.0 mi Calm Calm - N/A   Clear
1:35 AM 41.9 °F - 40.3 °F 94% 29.99 in 10.0 mi Calm Calm - N/A   Clear
1:55 AM 42.1 °F 40.2 °F 40.8 °F 95% 29.99 in 7.0 mi ESE 3.5 mph - N/A   Clear
2:15 AM 41.9 °F - 40.6 °F 95% 30.00 in 7.0 mi Calm Calm - N/A   Clear
2:35 AM 41.5 °F 39.6 °F 40.6 °F 97% 30.00 in 7.0 mi East 3.5 mph - N/A   Clear
2:55 AM 40.5 °F 38.4 °F 39.6 °F 97% 30.00 in 7.0 mi East 3.5 mph - N/A   Clear
3:15 AM 40.3 °F 38.2 °F 39.6 °F 97% 30.00 in 7.0 mi East 3.5 mph - N/A   Clear
3:35 AM 41.0 °F 39.0 °F 40.1 °F 97% 29.99 in 7.0 mi East 3.5 mph - N/A   Clear
3:55 AM 41.4 °F 39.4 °F 40.8 °F 98% 30.00 in 5.0 mi ESE 3.5 mph - N/A   Clear
4:15 AM 41.4 °F 37.6 °F 41.0 °F 99% 30.00 in 7.0 mi SE 5.8 mph - N/A   Clear
4:35 AM 41.9 °F 38.2 °F 41.2 °F 97% 30.01 in 5.0 mi ESE 5.8 mph - N/A   Clear
4:55 AM 41.4 °F 37.6 °F 41.0 °F 99% 30.01 in 5.0 mi ESE 5.8 mph - N/A   Clear
5:15 AM 42.1 °F 37.7 °F 41.9 °F 99% 30.01 in 5.0 mi ESE 6.9 mph - N/A   Clear
5:35 AM 41.9 °F 38.2 °F 41.4 °F 98% 30.01 in 5.0 mi ESE 5.8 mph - N/A   Clear
5:55 AM 41.5 °F 37.8 °F 41.2 °F 99% 30.01 in 5.0 mi ESE 5.8 mph - N/A   Clear
6:15 AM 41.9 °F 37.5 °F 41.4 °F 98% 30.01 in 5.0 mi East 6.9 mph - N/A   Clear
6:35 AM 42.3 °F 37.9 °F 41.9 °F 99% 30.01 in 5.0 mi ESE 6.9 mph - N/A   Clear
6:55 AM 42.4 °F 38.1 °F 41.9 °F 98% 30.01 in 5.0 mi ESE 6.9 mph - N/A   Clear
7:15 AM 42.8 °F 38.6 °F 42.1 °F 97% 30.01 in 4.0 mi ESE 6.9 mph - N/A   Clear
7:35 AM 43.3 °F 38.6 °F 42.8 °F 98% 30.01 in 4.0 mi ESE 8.1 mph - N/A   Clear
7:55 AM 44.2 °F 40.3 °F 43.3 °F 97% 30.01 in 4.0 mi SE 6.9 mph - N/A   Clear
8:15 AM 46.0 °F 41.4 °F 44.6 °F 95% 30.02 in 5.0 mi ESE 9.2 mph - N/A   Clear
8:35 AM 47.7 °F - 45.7 °F 93% 30.02 in 7.0 mi ESE 10.4 mph - N/A   Clear
8:55 AM 49.3 °F - 46.8 °F 91% 30.02 in 7.0 mi ESE 10.4 mph - N/A   Clear
9:15 AM 51.1 °F - 47.7 °F 88% 30.02 in 10.0 mi SE 10.4 mph - N/A   Clear
9:35 AM 53.1 °F - 48.9 °F 86% 30.03 in 10.0 mi SE 10.4 mph - N/A   Clear
9:55 AM 54.7 °F - 48.9 °F 81% 30.03 in 10.0 mi SE 11.5 mph - N/A   Clear
10:15 AM 55.9 °F - 49.5 °F 79% 30.03 in 10.0 mi SE 10.4 mph - N/A   Clear
10:35 AM 58.1 °F - 50.4 °F 75% 30.03 in 10.0 mi SE 9.2 mph - N/A   Clear
10:55 AM 59.9 °F - 50.5 °F 71% 30.02 in 10.0 mi SE 11.5 mph - N/A   Clear
11:15 AM 61.9 °F - 51.1 °F 68% 30.02 in 10.0 mi SE 10.4 mph - N/A   Clear
11:35 AM 63.7 °F - 50.0 °F 61% 30.02 in 10.0 mi SE 11.5 mph - N/A   Clear
11:55 AM 65.5 °F - 50.2 °F 58% 30.01 in 10.0 mi SE 15.0 mph 18.4 mph N/A   Clear
12:15 PM 67.1 °F - 49.6 °F 53% 30.00 in 10.0 mi SSE 13.8 mph - N/A   Clear
12:35 PM 68.0 °F - 49.5 °F 51% 29.99 in 10.0 mi SE 15.0 mph 20.7 mph N/A   Clear
12:55 PM 68.9 °F - 49.8 °F 51% 29.99 in 10.0 mi SSE 15.0 mph 20.7 mph N/A   Clear
1:15 PM 70.0 °F - 50.2 °F 49% 29.99 in 10.0 mi SSE 15.0 mph 20.7 mph N/A   Clear
1:35 PM 71.1 °F - 49.8 °F 47% 29.98 in 10.0 mi SSE 16.1 mph 20.7 mph N/A   Clear
1:55 PM 71.4 °F - 50.0 °F 47% 29.98 in 10.0 mi South 16.1 mph - N/A   Clear
2:15 PM 71.8 °F - 49.8 °F 46% 29.97 in 10.0 mi SSE 12.7 mph - N/A   Clear
2:35 PM 72.1 °F - 50.5 °F 46% 29.97 in 10.0 mi SE 12.7 mph - N/A   Clear
2:55 PM 72.7 °F - 50.9 °F 46% 29.97 in 10.0 mi SSE 12.7 mph - N/A   Clear
3:15 PM 72.9 °F - 51.1 °F 46% 29.97 in 10.0 mi SSE 13.8 mph - N/A   Clear
3:35 PM 72.7 °F - 50.9 °F 46% 29.97 in 10.0 mi SSE 10.4 mph - N/A   Clear
3:55 PM 72.7 °F - 51.1 °F 47% 29.97 in 10.0 mi SSE 11.5 mph - N/A   Clear
4:15 PM 72.7 °F - 51.4 °F 47% 29.96 in 10.0 mi SSE 12.7 mph - N/A   Clear
4:35 PM 72.3 °F - 51.4 °F 48% 29.96 in 10.0 mi SSE 11.5 mph - N/A   Clear
4:55 PM 71.8 °F - 51.6 °F 49% 29.97 in 10.0 mi SE 11.5 mph - N/A   Clear
5:15 PM 71.1 °F - 52.2 °F 51% 29.97 in 10.0 mi SE 10.4 mph - N/A   Clear
5:35 PM 69.4 °F - 52.7 °F 55% 29.97 in 10.0 mi SSE 10.4 mph - N/A   Clear
5:55 PM 67.6 °F - 52.9 °F 59% 29.97 in 10.0 mi SSE 9.2 mph - N/A   Clear
6:15 PM 66.2 °F - 53.1 °F 63% 29.97 in 10.0 mi SSE 9.2 mph - N/A   Clear
6:55 PM 63.5 °F - 53.1 °F 69% 29.98 in 10.0 mi SE 5.8 mph - N/A   Clear
7:15 PM 60.8 °F - 53.4 °F 77% 29.99 in 10.0 mi SE 4.6 mph - N/A   Clear
7:35 PM 61.0 °F - 52.9 °F 75% 29.99 in 10.0 mi SE 6.9 mph - N/A   Clear
7:55 PM 60.8 °F - 52.7 °F 75% 29.99 in 10.0 mi SE 5.8 mph - N/A   Clear
8:15 PM 60.8 °F - 52.7 °F 75% 29.99 in 10.0 mi SE 6.9 mph - N/A   Clear
8:35 PM 60.1 °F - 52.7 °F 77% 29.99 in 10.0 mi SE 5.8 mph - N/A   Clear
8:55 PM 57.9 °F - 52.7 °F 83% 30.00 in 10.0 mi SE 4.6 mph - N/A   Clear
9:15 PM 57.7 °F - 53.1 °F 84% 30.00 in 10.0 mi SE 5.8 mph - N/A   Clear
9:35 PM 59.0 °F - 52.0 °F 78% 30.00 in 10.0 mi SE 5.8 mph - N/A   Clear
9:55 PM 59.0 °F - 51.8 °F 77% 30.00 in 10.0 mi SE 8.1 mph - N/A   Clear
10:15 PM 59.7 °F - 51.8 °F 75% 30.00 in 10.0 mi SE 6.9 mph - N/A   Clear
10:35 PM 58.8 °F - 51.8 °F 77% 30.00 in 10.0 mi SSE 5.8 mph - N/A   Clear
10:55 PM 59.0 °F - 51.8 °F 77% 30.00 in 10.0 mi SSE 5.8 mph - N/A   Clear
11:15 PM 58.6 °F - 52.2 °F 79% 30.00 in 10.0 mi SE 5.8 mph - N/A   Clear
11:35 PM 57.4 °F - 52.7 °F 84% 30.00 in 10.0 mi SE 4.6 mph - N/A   Clear
11:55 PM 56.8 °F - 52.7 °F 86% 29.99 in 10.0 mi Calm Calm - N/A   Clear